EW3320 Weather Reports


time (UTC)temp
F
wind
direction
speed
knots
gust
knots
rain 1hr
in
rain 24hr
in
rain mn
in
humidity
%
barometer
mb
20260906234528 95 127 0.9 6.1 0.00 0.00 0.00 17 1000.6
20260906234036 95 128 1.7 5.2 0.00 0.00 0.00 17 1000.7
20260906233554 94 133 1.7 4.3 0.00 0.00 0.00 17 1000.7
20260906233005 95 153 0.0 4.3 0.00 0.00 0.00 17 1000.7
20260906232519 95 120 0.9 4.3 0.00 0.00 0.00 17 1000.8
20260906232028 95 124 0.9 7.8 0.00 0.00 0.00 17 1000.8
20260906231552 96 111 1.7 7.8 0.00 0.00 0.00 16 1000.8
20260906231055 96 118 0.9 3.5 0.00 0.00 0.00 16 1000.8
20260906231001 96 98 0.9 3.5 0.00 0.00 0.00 17 1000.8
20260906230511 97 139 0.0 2.6 0.00 0.00 0.00 16 1000.8
20260906230030 97 146 0.0 2.6 0.00 0.00 0.00 17 1000.9
20260906225536 96 146 0.0 3.5 0.00 0.00 0.00 17 1000.8
20260906225054 96 119 0.0 3.5 0.00 0.00 0.00 16 1000.9
20260906224503 96 136 0.0 5.2 0.00 0.00 0.00 16 1000.9
20260906224017 96 110 1.7 5.2 0.00 0.00 0.00 17 1000.9
20260906223527 97 146 0.9 2.6 0.00 0.00 0.00 16 1000.8
20260906223041 96 130 0.0 3.5 0.00 0.00 0.00 16 1000.9
20260906222553 96 108 0.9 6.1 0.00 0.00 0.00 16 1001.1
20260906222007 96 145 0.9 7.0 0.00 0.00 0.00 17 1001.2
20260906221526 97 105 0.9 4.3 0.00 0.00 0.00 16 1001.1
20260906221031 97 114 0.9 4.3 0.00 0.00 0.00 16 1001.3
20260906220541 97 122 0.0 6.1 0.00 0.00 0.00 16 1001.4
20260906220127 97 136 0.0 6.1 0.00 0.00 0.00 15 1001.5
20260906215506 97 134 0.9 2.6 0.00 0.00 0.00 15 1001.5
20260906215021 96 138 0.0 4.3 0.00 0.00 0.00 16 1001.7
20260906214536 96 129 1.7 4.3 0.00 0.00 0.00 15 1001.8
20260906214045 96 122 1.7 5.2 0.00 0.00 0.00 15 1001.8
20260906213555 96 152 1.7 7.8 0.00 0.00 0.00 15 1002.1
20260906213013 97 138 2.6 7.8 0.00 0.00 0.00 15 1002.2
20260906212522 97 97 3.5 6.1 0.00 0.00 0.00 15 1002.3
20260906212036 98 137 0.0 2.6 0.00 0.00 0.00 15 1002.4
20260906211546 98 122 0.9 4.3 0.00 0.00 0.00 15 1002.5
20260906211003 98 139 0.9 4.3 0.00 0.00 0.00 15 1002.6
20260906210526 98 118 0.0 3.5 0.00 0.00 0.00 15 1002.6
20260906210050 97 151 0.0 2.6 0.00 0.00 0.00 16 1002.8
20260906205543 96 161 0.0 2.6 0.00 0.00 0.00 14 1002.9
20260906205052 96 155 0.0 2.6 0.00 0.00 0.00 15 1003.0
20260906204509 96 126 0.0 3.5 0.00 0.00 0.00 15 1003.1
20260906204018 95 136 0.0 3.5 0.00 0.00 0.00 15 1003.2
20260906203533 94 144 0.0 2.6 0.00 0.00 0.00 16 1003.3
20260906203043 93 133 0.0 4.3 0.00 0.00 0.00 16 1003.4
20260906202558 93 115 0.9 6.1 0.00 0.00 0.00 16 1003.5
20260906202501 92 132 0.0 6.1 0.00 0.00 0.00 16 1003.6
20260906202014 93 124 2.6 7.0 0.00 0.00 0.00 16 1003.6
20260906201525 94 139 2.6 7.0 0.00 0.00 0.00 15 1003.6
20260906201034 94 140 0.9 4.3 0.00 0.00 0.00 15 1003.7
20260906200552 94 132 0.9 3.5 0.00 0.00 0.00 16 1003.6
20260906200010 93 141 0.0 2.6 0.00 0.00 0.00 16 1003.7
20260906195516 92 156 0.9 3.5 0.00 0.00 0.00 16 1003.9
20260906195028 92 160 1.7 4.3 0.00 0.00 0.00 16 1003.9
20260906194606 93 120 0.9 4.3 0.00 0.00 0.00 15 1003.9
20260906194053 94 125 0.0 4.3 0.00 0.00 0.00 15 1004.0
20260906193511 94 120 0.9 5.2 0.00 0.00 0.00 15 1004.0
20260906193021 94 139 0.0 2.6 0.00 0.00 0.00 15 1004.1
20260906192534 93 141 0.9 2.6 0.00 0.00 0.00 16 1004.2
20260906192044 94 175 0.9 4.3 0.00 0.00 0.00 15 1004.2
20260906191604 93 142 0.0 5.2 0.00 0.00 0.00 15 1004.4
20260906191015 93 159 0.9 5.2 0.00 0.00 0.00 15 1004.4
20260906190525 94 157 0.0 2.6 0.00 0.00 0.00 16 1004.5
20260906190040 93 148 0.0 4.3 0.00 0.00 0.00 16 1004.6
20260906185548 92 148 1.7 4.3 0.00 0.00 0.00 16 1004.8
20260906185005 92 133 0.9 3.5 0.00 0.00 0.00 16 1004.9
20260906184515 92 152 1.7 3.5 0.00 0.00 0.00 16 1005.0
20260906184028 91 176 0.0 4.3 0.00 0.00 0.00 17 1005.1
20260906183531 91 176 1.7 3.5 0.00 0.00 0.00 16 1005.1
20260906183056 92 232 0.9 2.6 0.00 0.00 0.00 16 1005.2
20260906182554 91 150 0.0 4.3 0.00 0.00 0.00 17 1005.3
20260906182010 91 144 1.7 4.3 0.00 0.00 0.00 17 1005.4
20260906181526 92 185 0.0 4.3 0.00 0.00 0.00 17 1005.5
20260906181034 92 162 0.9 4.3 0.00 0.00 0.00 18 1005.6
20260906180548 92 131 0.9 3.5 0.00 0.00 0.00 17 1005.8
20260906180058 90 147 0.0 4.3 0.00 0.00 0.00 18 1005.8
20260906175514 89 155 0.9 4.3 0.00 0.00 0.00 20 1005.9
20260906175029 88 272 0.0 4.3 0.00 0.00 0.00 23 1005.9
20260906174539 87 145 0.9 6.1 0.00 0.00 0.00 23 1006.0
20260906174050 86 173 1.7 6.1 0.00 0.00 0.00 24 1006.0
20260906173603 86 141 2.6 5.2 0.00 0.00 0.00 24 1006.1
20260906173503 86 211 2.6 5.2 0.00 0.00 0.00 24 1006.1
20260906173020 87 162 1.7 5.2 0.00 0.00 0.00 24 1006.2
20260906172527 86 154 1.7 5.2 0.00 0.00 0.00 25 1006.2
20260906172042 86 147 1.7 5.2 0.00 0.00 0.00 25 1006.3
20260906171603 86 159 0.9 4.3 0.00 0.00 0.00 25 1006.3
20260906171006 85 168 0.0 4.3 0.00 0.00 0.00 26 1006.4
20260906170526 85 167 0.9 5.2 0.00 0.00 0.00 26 1006.5
20260906170030 84 170 1.7 5.2 0.00 0.00 0.00 26 1006.5
20260906165545 84 189 0.9 4.3 0.00 0.00 0.00 27 1006.5
20260906165056 84 155 0.9 4.3 0.00 0.00 0.00 27 1006.6
20260906164528 84 144 0.9 3.5 0.00 0.00 0.00 27 1006.6
20260906164023 84 165 1.7 4.3 0.00 0.00 0.00 27 1006.5
20260906163539 84 152 0.9 5.2 0.00 0.00 0.00 27 1006.6
20260906163053 83 161 1.7 5.2 0.00 0.00 0.00 27 1006.6
20260906162509 84 161 0.9 7.0 0.00 0.00 0.00 26 1006.7
20260906162018 84 157 0.9 7.0 0.00 0.00 0.00 26 1006.7
20260906161530 84 226 0.9 4.3 0.00 0.00 0.00 27 1006.7
20260906161040 83 148 0.9 3.5 0.00 0.00 0.00 27 1006.8
20260906160556 82 152 0.9 6.1 0.00 0.00 0.00 28 1006.7
20260906160008 81 169 0.9 6.1 0.00 0.00 0.00 29 1006.7
20260906155525 82 164 2.6 5.2 0.00 0.00 0.00 28 1006.8
20260906155032 82 165 0.0 5.2 0.00 0.00 0.00 27 1006.8
20260906154546 82 148 0.0 3.5 0.00 0.00 0.00 28 1006.7
20260906154057 81 124 0.9 3.5 0.00 0.00 0.00 28 1006.7
20260906153512 80 146 0.0 5.2 0.00 0.00 0.00 28 1006.7
20260906153022 80 177 0.9 5.2 0.00 0.00 0.00 29 1006.8
20260906152536 79 124 0.9 5.2 0.00 0.00 0.00 29 1006.7
20260906152044 79 135 1.7 5.2 0.00 0.00 0.00 30 1006.8
20260906151558 78 158 0.9 3.5 0.00 0.00 0.00 30 1006.9
20260906151014 78 140 0.9 3.5 0.00 0.00 0.00 30 1006.9
20260906150528 77 142 0.9 4.3 0.00 0.00 0.00 31 1007.0
20260906150052 77 160 0.9 4.3 0.00 0.00 0.00 31 1007.0
20260906145548 76 138 0.9 2.6 0.00 0.00 0.00 32 1007.0
20260906145100 75 145 0.0 1.7 0.00 0.00 0.00 33 1007.0
20260906145002 75 146 0.0 1.7 0.00 0.00 0.00 33 1007.0
20260906144512 74 146 0.0 1.7 0.00 0.00 0.00 34 1007.1
20260906144026 74 146 0.0 0.0 0.00 0.00 0.00 34 1007.1
20260906143536 73 146 0.0 0.0 0.00 0.00 0.00 33 1007.0
20260906143051 73 146 0.0 0.0 0.00 0.00 0.00 33 1006.9
20260906142600 72 146 0.0 1.7 0.00 0.00 0.00 33 1006.9
20260906142502 72 173 0.0 1.7 0.00 0.00 0.00 33 1006.9
20260906142018 72 173 0.0 1.7 0.00 0.00 0.00 33 1007.0
20260906141536 73 146 0.0 3.5 0.00 0.00 0.00 33 1006.9
20260906141044 73 302 0.9 1.7 0.00 0.00 0.00 33 1006.9
20260906140554 73 162 0.0 1.7 0.00 0.00 0.00 33 1006.7
20260906140009 73 155 0.0 2.6 0.00 0.00 0.00 33 1006.6
20260906135519 72 150 0.0 2.6 0.00 0.00 0.00 33 1006.6
20260906135031 71 142 0.0 2.6 0.00 0.00 0.00 33 1006.5
20260906134542 71 136 0.0 3.5 0.00 0.00 0.00 33 1006.5
20260906134058 71 141 0.9 3.5 0.00 0.00 0.00 33 1006.5
20260906133513 70 133 0.0 2.6 0.00 0.00 0.00 34 1006.4
20260906133024 69 151 0.9 3.5 0.00 0.00 0.00 35 1006.3
20260906132534 68 137 0.9 3.5 0.00 0.00 0.00 35 1006.3
20260906132050 67 135 0.9 2.6 0.00 0.00 0.00 35 1006.3
20260906131600 67 144 0.0 2.6 0.00 0.00 0.00 36 1006.4
20260906131521 67 150 0.0 2.6 0.00 0.00 0.00 36 1006.4
20260906131017 66 150 0.0 1.7 0.00 0.00 0.00 39 1006.5
20260906130531 65 150 0.0 0.0 0.00 0.00 0.00 40 1006.5
20260906130046 65 150 0.0 0.0 0.00 0.00 0.00 40 1006.4
20260906125554 65 151 0.0 0.0 0.00 0.00 0.00 40 1006.4
20260906125005 65 150 0.0 0.0 0.00 0.00 0.00 41 1006.3
20260906124519 66 150 0.0 0.0 0.00 0.00 0.00 41 1006.3
20260906124030 66 150 0.0 0.0 0.00 0.00 0.00 39 1006.4
20260906123543 67 150 0.0 0.0 0.00 0.00 0.00 39 1006.4
20260906123054 67 150 0.0 0.0 0.00 0.00 0.00 38 1006.3
20260906122511 67 151 0.0 0.9 0.00 0.00 0.00 37 1006.3
20260906122022 67 150 0.0 0.9 0.00 0.00 0.00 38 1006.3
20260906121535 67 150 0.0 0.9 0.00 0.00 0.00 38 1006.2
20260906121046 68 151 0.0 0.9 0.00 0.00 0.00 39 1006.2
20260906120505 68 150 0.0 0.9 0.00 0.00 0.00 40 1006.2
20260906120013 68 151 0.0 0.9 0.00 0.00 0.00 40 1006.2
20260906115531 68 151 0.0 0.0 0.00 0.00 0.00 41 1006.2
20260906115039 68 150 0.0 0.0 0.00 0.00 0.00 40 1006.2
20260906114554 68 150 0.0 0.0 0.00 0.00 0.00 40 1006.2
20260906114013 68 150 0.0 0.0 0.00 0.00 0.00 41 1006.2
20260906113522 68 151 0.0 0.0 0.00 0.00 0.00 40 1006.2
20260906113032 69 150 0.0 0.0 0.00 0.00 0.00 39 1006.1
20260906112545 69 150 0.0 0.0 0.00 0.00 0.00 39 1006.1
20260906112056 70 150 0.0 0.9 0.00 0.00 0.00 38 1006.1
20260906112003 70 150 0.0 0.9 0.00 0.00 0.00 38 1006.0
20260906111512 70 150 0.0 0.9 0.00 0.00 0.00 38 1006.2
20260906111026 70 150 0.0 0.0 0.00 0.00 0.00 37 1006.2
20260906110536 71 174 0.0 0.0 0.00 0.00 0.00 37 1006.2
20260906110050 71 174 0.0 0.0 0.00 0.00 0.00 36 1006.2
20260906105603 72 174 0.0 0.9 0.00 0.00 0.00 35 1006.1
20260906105503 72 174 0.0 1.7 0.00 0.00 0.00 35 1006.1
20260906105018 72 174 0.0 1.7 0.00 0.00 0.00 35 1006.1
20260906104528 71 155 0.0 1.7 0.00 0.00 0.00 35 1006.1
20260906104042 71 135 0.0 0.9 0.00 0.00 0.00 36 1006.1
20260906103552 71 130 0.0 0.0 0.00 0.00 0.00 35 1006.0
20260906103009 72 130 0.0 0.0 0.00 0.00 0.00 35 1006.0
20260906102519 72 130 0.0 0.9 0.00 0.00 0.00 34 1006.0
20260906102032 72 130 0.0 0.9 0.00 0.00 0.00 33 1005.9
20260906101542 73 130 0.0 0.9 0.00 0.00 0.00 33 1006.0
20260906101055 73 130 0.0 0.9 0.00 0.00 0.00 33 1005.9
20260906100508 73 130 0.0 2.6 0.00 0.00 0.00 32 1006.0
20260906100022 73 129 0.0 2.6 0.00 0.00 0.00 32 1005.9
20260906095534 73 129 0.0 3.5 0.00 0.00 0.00 32 1005.9
20260906095045 74 134 0.0 3.5 0.00 0.00 0.00 32 1005.9
20260906094637 74 134 0.9 3.5 0.00 0.00 0.00 32 1005.8
20260906094016 74 136 0.9 5.2 0.00 0.00 0.00 32 1005.8
20260906093522 74 134 1.7 5.2 0.00 0.00 0.00 32 1005.7
20260906093038 74 121 1.7 5.2 0.00 0.00 0.00 32 1005.6
20260906092550 74 138 1.7 5.2 0.00 0.00 0.00 32 1005.6
20260906092100 74 135 1.7 4.3 0.00 0.00 0.00 32 1005.6
20260906092003 74 130 1.7 4.3 0.00 0.00 0.00 32 1005.6
20260906091516 74 123 1.7 4.3 0.00 0.00 0.00 32 1005.6
20260906091026 74 135 0.9 4.3 0.00 0.00 0.00 32 1005.6
20260906090540 74 130 0.9 4.3 0.00 0.00 0.00 32 1005.6
20260906090049 75 134 1.7 4.3 0.00 0.00 0.00 32 1005.6
20260906085506 75 129 0.9 4.3 0.00 0.00 0.00 32 1005.6
20260906085016 75 117 0.9 4.3 0.00 0.00 0.00 32 1005.5
20260906084535 75 132 0.9 2.6 0.00 0.00 0.00 32 1005.6
20260906084039 75 129 0.9 2.6 0.00 0.00 0.00 32 1005.6
20260906083554 74 129 0.9 2.6 0.00 0.00 0.00 32 1005.7
20260906083004 74 129 0.9 2.6 0.00 0.00 0.00 33 1005.7
20260906082517 74 131 0.0 1.7 0.00 0.00 0.00 33 1005.7
20260906082028 74 138 0.9 3.5 0.00 0.00 0.00 33 1005.7
20260906081549 74 138 0.9 3.5 0.00 0.00 0.00 33 1005.7
20260906081051 74 132 0.0 1.7 0.00 0.00 0.00 33 1005.8
20260906080508 74 143 0.0 1.7 0.00 0.00 0.00 34 1005.9
20260906080019 74 143 0.0 1.7 0.00 0.00 0.00 34 1006.0
20260906075533 74 143 0.0 1.7 0.00 0.00 0.00 34 1006.1
20260906075043 74 143 0.0 1.7 0.00 0.00 0.00 34 1006.1
20260906074558 74 143 0.0 0.9 0.00 0.00 0.00 34 1006.1
20260906074009 74 143 0.0 1.7 0.00 0.00 0.00 34 1006.2
20260906073526 74 143 0.0 1.7 0.00 0.00 0.00 34 1006.2
20260906073036 74 143 0.0 1.7 0.00 0.00 0.00 34 1006.2
20260906072550 74 143 0.0 1.7 0.00 0.00 0.00 34 1006.2
20260906072100 74 146 0.0 2.6 0.00 0.00 0.00 34 1006.3
20260906072007 74 135 0.0 2.6 0.00 0.00 0.00 34 1006.2
20260906071515 74 135 0.9 2.6 0.00 0.00 0.00 34 1006.2
20260906071034 74 136 0.0 1.7 0.00 0.00 0.00 34 1006.3
20260906070543 74 136 0.0 1.7 0.00 0.00 0.00 34 1006.4
20260906070058 73 136 0.0 0.9 0.00 0.00 0.00 34 1006.4
20260906065509 74 136 0.0 0.9 0.00 0.00 0.00 34 1006.4
20260906065024 74 136 0.0 1.7 0.00 0.00 0.00 33 1006.3
20260906064535 74 136 0.0 2.6 0.00 0.00 0.00 33 1006.3
20260906064049 74 127 0.0 2.6 0.00 0.00 0.00 33 1006.2
20260906063503 74 96 0.0 3.5 0.00 0.00 0.00 33 1006.1
20260906063018 74 96 0.9 3.5 0.00 0.00 0.00 33 1006.2
20260906062529 74 136 0.0 0.0 0.00 0.00 0.00 34 1006.1
20260906062041 75 146 0.0 2.6 0.00 0.00 0.00 33 1006.0
20260906061552 76 160 0.0 4.3 0.00 0.00 0.00 32 1006.0
20260906061007 76 148 0.0 4.3 0.00 0.00 0.00 31 1005.9
20260906060518 76 152 0.9 5.2 0.00 0.00 0.00 31 1005.9
20260906060029 76 134 2.6 5.2 0.00 0.00 0.00 31 1005.9
20260906055532 76 139 1.7 6.1 0.00 0.00 0.00 31 1005.9
20260906055045 77 131 2.6 7.0 0.00 0.00 0.00 31 1005.8
20260906054556 77 122 2.6 7.0 0.00 0.00 0.00 31 1005.7
20260906054011 77 130 2.6 7.8 0.00 0.00 0.00 31 1005.7
20260906053524 77 136 2.6 7.8 0.00 0.00 0.00 31 1005.7
20260906053037 77 127 2.6 7.0 0.00 0.00 0.00 31 1005.7
20260906052550 76 136 1.7 4.3 0.00 0.00 0.00 31 1005.8
20260906052004 76 138 0.9 5.2 0.00 0.00 0.00 31 1005.8
20260906051520 77 135 1.7 5.2 0.00 0.00 0.00 31 1005.7
20260906051030 77 136 1.7 5.2 0.00 0.00 0.00 31 1005.7
20260906050545 77 120 1.7 3.5 0.00 0.00 0.00 31 1005.6
20260906050114 77 125 0.9 4.3 0.00 0.00 0.00 31 1005.7
20260906045512 77 133 0.0 5.2 0.00 0.00 0.00 31 1005.6
20260906045021 77 136 1.7 5.2 0.00 0.00 0.00 31 1005.6
20260906044541 77 129 0.9 4.3 0.00 0.00 0.00 31 1005.7
20260906044049 77 129 1.7 5.2 0.00 0.00 0.00 31 1005.7
20260906043559 77 136 1.7 5.2 0.00 0.00 0.00 31 1005.6
20260906043501 77 141 1.7 4.3 0.00 0.00 0.00 31 1005.6
20260906043011 77 131 0.9 3.5 0.00 0.00 0.00 31 1005.6
20260906042526 77 129 0.0 2.6 0.00 0.00 0.00 30 1005.6
20260906042037 78 129 0.0 3.5 0.00 0.00 0.00 30 1005.6
20260906041551 78 127 0.9 3.5 0.00 0.00 0.00 30 1005.6
20260906041004 78 128 0.9 3.5 0.00 0.00 0.00 30 1005.6
20260906040521 78 132 0.0 2.6 0.00 0.00 0.00 30 1005.6
20260906040034 78 132 0.0 3.5 0.00 0.00 0.00 30 1005.6
20260906035546 78 134 0.9 3.5 0.00 0.00 0.00 30 1005.7
20260906035057 79 129 0.9 4.3 0.00 0.00 0.00 29 1005.7
20260906034511 79 128 1.7 3.5 0.00 0.00 0.00 29 1005.6
20260906034018 79 122 0.9 3.5 0.00 0.00 0.00 29 1005.6
20260906033533 79 129 0.9 3.5 0.00 0.00 0.00 29 1005.6
20260906033045 79 128 0.9 3.5 0.00 0.00 0.00 29 1005.5
20260906032557 80 128 0.9 3.5 0.00 0.00 0.00 29 1005.4
20260906032501 80 133 0.9 3.5 0.00 0.00 0.00 29 1005.4
20260906032016 80 140 0.9 4.3 0.00 0.00 0.00 28 1005.3
20260906031541 80 133 0.9 4.3 0.00 0.00 0.00 28 1005.2
20260906031041 80 131 1.7 3.5 0.00 0.00 0.00 28 1005.1
20260906030551 80 124 0.0 2.6 0.00 0.00 0.00 28 1005.0
20260906030010 81 130 0.9 4.3 0.00 0.00 0.00 28 1005.0
20260906025519 81 131 0.9 4.3 0.00 0.00 0.00 28 1005.0
20260906025035 81 151 0.9 5.2 0.00 0.00 0.00 28 1004.9
20260906024545 81 129 1.7 5.2 0.00 0.00 0.00 28 1004.8
20260906024059 81 124 0.9 5.2 0.00 0.00 0.00 27 1004.7
20260906024002 81 119 0.9 5.2 0.00 0.00 0.00 27 1004.7
20260906023511 81 120 1.7 5.2 0.00 0.00 0.00 27 1004.7
20260906023025 81 122 0.9 3.5 0.00 0.00 0.00 28 1004.7
20260906022535 82 146 0.9 3.5 0.00 0.00 0.00 28 1004.7
20260906022053 82 131 0.9 3.5 0.00 0.00 0.00 28 1004.6
20260906021606 82 124 0.0 2.6 0.00 0.00 0.00 28 1004.5
20260906021500 82 132 0.0 4.3 0.00 0.00 0.00 28 1004.6
20260906021015 83 128 0.0 4.3 0.00 0.00 0.00 28 1004.5
20260906020525 83 135 0.0 1.7 0.00 0.00 0.00 28 1004.5
20260906020050 83 135 0.0 4.3 0.00 0.00 0.00 28 1004.4
20260906015549 83 123 0.9 4.3 0.00 0.00 0.00 28 1004.4
20260906015006 84 131 0.0 2.6 0.00 0.00 0.00 28 1004.3
20260906014517 84 130 0.0 0.9 0.00 0.00 0.00 30 1004.2
20260906014031 84 129 0.0 0.9 0.00 0.00 0.00 30 1004.2
20260906013543 85 130 0.0 0.9 0.00 0.00 0.00 29 1004.2
20260906013057 85 129 0.0 0.9 0.00 0.00 0.00 29 1004.1
20260906012513 85 129 0.0 1.7 0.00 0.00 0.00 29 1004.2
20260906012023 85 129 0.0 0.9 0.00 0.00 0.00 29 1004.2
20260906011537 86 129 0.0 1.7 0.00 0.00 0.00 28 1004.2
20260906011051 86 129 0.0 1.7 0.00 0.00 0.00 28 1004.2
20260906010503 87 129 0.0 1.7 0.00 0.00 0.00 27 1004.1
20260906010015 87 129 0.0 2.6 0.00 0.00 0.00 27 1004.2
20260906005530 87 125 0.0 4.3 0.00 0.00 0.00 27 1004.1
20260906005041 88 129 0.9 5.2 0.00 0.00 0.00 27 1004.2
20260906004558 88 128 1.7 5.2 0.00 0.00 0.00 26 1004.2
20260906004009 89 131 1.7 5.2 0.00 0.00 0.00 26 1004.3
20260906003524 89 134 0.0 3.5 0.00 0.00 0.00 26 1004.2
20260906003033 90 133 0.9 6.1 0.00 0.00 0.00 25 1004.3
20260906002547 89 119 1.7 6.1 0.00 0.00 0.00 25 1004.2
20260906002057 90 134 1.7 6.1 0.00 0.00 0.00 25 1004.3
20260906001513 90 130 2.6 6.1 0.00 0.00 0.00 24 1004.3
20260906001023 90 124 0.9 7.0 0.00 0.00 0.00 24 1004.2
20260906000536 91 129 0.9 7.0 0.00 0.00 0.00 24 1004.1
20260906000047 91 127 0.9 5.2 0.00 0.00 0.00 24 1004.1
20260905235503 91 127 0.9 6.1 0.00 0.00 0.00 24 1004.1
20260905235018 91 137 1.7 6.1 0.00 0.00 0.00 24 1004.2